Tracking 29892 objects as of 21-Nov-2024
HD Live streaming from Space Station
objects crossing your sky now

COSMOS 2126

Track COSMOS 2126 now!
10-day predictions
COSMOS 2126 is classified as:


NORAD ID: 21101
Int'l Code: 1991-009B
Perigee: 1,473.1 km
Apogee: 1,503.3 km
Inclination: 74.0 °
Period: 115.6 minutes
Semi major axis: 7859 km
RCS: 0.7089 m2 (medium)
Launch date: February 12, 1991
Source: Commonwealth of Independent States (former USSR) (CIS)
Launch site: PLESETSK MISSILE AND SPACE COMPLEX (PKMTR)
Your satellite tracking list
Your tracking list is empty




NASA's NSSDC Master Catalog

Two Line Element Set (TLE):
1 21101U 91009B   24325.84245349 -.00000011  00000-0  29460-4 0  9997
2 21101  74.0273 121.3103 0019203 201.2079 158.8175 12.46055338536463
Source of the keplerian elements: AFSPC